Location: Ostrava
(49.8330°N, 18.2830°E)
Time: 04:04:40
(UTC+02:00)

Iridium 7 - Visible Passes

Search period start: 30 July 2015 00:00
Search period end: 09 August 2015 00:00
Orbit: 776 x 779 km, 86.4° (Epoch: 29 July)

Date Brightness Start Highest point End Pass type
(mag) Time Alt. Az. Time Alt. Az. Time Alt. Az.
30 Jul 6.5 21:22:34 10° SSW 21:27:38 51° W 21:32:44 10° N visible
31 Jul 8.4 22:32:55 10° W 22:35:43 14° WNW 22:38:18 10° NW visible
01 Aug 8.0 21:57:34 10° WSW 22:01:42 23° WNW 22:05:46 10° NNW visible
02 Aug 7.2 21:23:01 10° SW 21:27:52 37° WNW 21:32:41 10° N visible
03 Aug 8.9 22:35:46 10° WNW 22:36:11 10° WNW 22:36:18 10° WNW visible
04 Aug 8.3 21:58:38 10° WSW 22:02:04 17° WNW 22:05:22 10° NNW visible
05 Aug 7.8 21:23:40 10° SW 21:28:08 27° WNW 21:32:32 10° NNW visible
06 Aug 6.8 20:49:20 10° SSW 20:54:21 45° W 20:59:21 10° N visible
07 Aug 8.6 22:00:11 10° W 22:02:31 13° WNW 22:04:36 10° NW visible
08 Aug 8.3 21:24:32 10° WSW 21:28:28 21° WNW 21:32:17 10° NNW visible
